Temp
19 19 18 18 18 18 17 17 17 17 17 16 16 16 16 15 15 15 15 15 15 15 15 15 15 15 15 15 15 15 15 15 15 15 15 15 15 15 15 15 14 14 14 14 14 15 15 15 15 14 14 14 14 14 14 14 14 14 14 14 14 14 14 14 14 13 13 13 13
19 19 18 18 18 18 17 17 17 17 17 16 16 16 16 15 15 15 15 15 15 15 15 15 15 15 15 15 15 15 15 15 15 15 15 15 15 15 14 14 14 14 14 14 14 15 15 15 15 14 14 14 14 14 14 14 14 14 14 14 14 14 14 14 14 13 13 13 13
19 19 18 18 18 18 17 17 17 17 17 16 16 16 16 16 16 16 15 15 15 15 15 15 15 15 15 15 15 15 15 15 15 15 15 15 15 15 14 14 14 14 14 14 14 15 15 15 15 14 14 14 14 14 14 14 14 14 14 14 14 14 14 14 14 13 13 12 12
19 19 18 18 18 18 18 17 17 17 17 16 16 16 16 16 16 16 16 15 15 15 15 15 15 15 15 15 15 15 15 15 15 15 15 15 15 15 14 14 14 14 14 14 14 14 14 14 14 14 14 13 13 13 14 14 14 14 14 14 14 14 14 14 13 13 12 12 12
19 19 19 18 18 18 18 17 17 17 17 16 16 16 16 16 16 16 16 15 15 15 15 15 15 15 15 15 15 15 15 15 15 15 15 15 15 15 14 14 14 14 14 14 14 14 14 14 14 14 14 13 13 13 13 14 13 13 13 13 13 13 13 13 13 13 12 12 11
19 19 19 18 18 18 18 17 17 17 17 16 16 16 16 16 16 16 16 15 15 15 15 15 15 15 15 15 15 15 15 15 15 15 15 15 15 14 14 14 14 14 14 14 14 14 14 14 13 13 13 13 13 13 13 13 13 13 13 13 13 13 13 13 13 12 12 11 11
19 19 19 18 18 18 18 17 17 17 17 16 16 16 16 16 16 16 16 16 15 15 15 15 15 15 15 15 15 15 15 15 15 15 15 15 14 14 14 14 14 14 14 14 14 14 13 13 13 13 13 13 13 13 13 13 13 13 13 13 13 13 13 13 12 12 11 11 11
19 19 19 18 18 18 18 17 17 17 17 16 16 16 16 16 16 16 16 16 15 15 15 15 15 15 15 15 15 15 15 15 15 15 15 15 14 14 14 14 14 14 14 14 13 13 13 13 13 13 13 13 13 13 13 13 13 13 13 13 13 13 13 12 12 11 10 10 10
19 19 19 18 18 18 18 17 17 17 17 16 16 16 16 16 16 16 16 15 15 16 16 15 15 15 15 15 15 15 15 15 15 15 15 15 14 14 14 14 14 13 13 13 13 13 13 13 13 13 13 13 13 13 13 13 13 13 13 13 13 13 12 11 11 10 10 10 10
19 19 19 18 18 18 18 17 17 17 17 16 16 16 16 16 16 16 16 16 16 16 15 15 15 15 15 15 15 15 15 15 15 15 15 15 14 14 14 14 13 13 13 13 13 13 13 13 13 13 13 13 13 13 13 13 13 13 13 13 12 12 11 11 11 11 11 10 10
19 19 19 18 18 18 18 17 17 17 17 16 16 16 16 16 16 16 16 16 16 15 15 15 15 15 15 15 15 15 15 15 15 15 15 15 14 14 14 14 13 13 13 13 13 13 13 13 13 13 13 13 13 13 13 13 13 13 12 12 12 11 11 11 11 11 10 10 9
19 19 18 18 18 18 17 17 17 17 16 16 16 16 16 16 16 16 16 16 16 16 15 15 15 15 15 15 15 15 15 15 15 15 15 14 14 14 14 13 13 13 13 13 13 13 13 13 13 13 13 13 13 13 13 13 13 12 12 12 11 11 11 11 10 10 9 9 9
19 19 18 18 18 17 17 17 17 16 16 16 16 16 16 16 16 16 16 16 16 16 15 15 15 15 15 15 15 15 15 15 15 15 14 14 14 14 13 13 13 14 14 14 13 13 13 13 13 13 13 13 13 13 12 12 12 12 12 12 11 11 11 10 10 9 9 9 9
19 19 18 18 18 17 17 17 17 16 16 16 16 16 16 16 16 16 16 16 16 16 15 15 15 15 15 15 15 15 15 15 15 15 14 14 14 14 13 13 13 13 13 13 13 13 13 13 13 13 13 13 13 12 12 12 12 12 12 11 11 10 10 9 9 9 9 9 8
19 18 18 18 17 17 17 17 16 16 16 16 16 16 16 16 16 16 16 16 16 16 15 15 15 15 15 15 15 15 15 15 14 14 14 14 14 14 14 13 13 13 13 13 13 13 13 13 13 13 13 12 12 12 12 12 11 11 11 10 10 10 9 9 9 9 8 8 8
18 18 18 18 17 17 17 16 16 16 16 15 15 16 16 16 16 15 15 15 15 15 15 15 15 15 15 15 15 15 15 14 14 14 14 14 14 14 13 13 13 13 13 13 13 13 13 13 13 12 12 12 12 12 11 11 11 10 10 10 10 9 9 9 9 8 8 8 7
18 18 18 17 17 17 17 16 16 16 15 15 15 15 16 15 15 15 15 15 15 15 15 15 15 15 15 15 15 14 14 14 14 14 14 14 14 14 13 13 13 13 13 13 13 13 12 12 12 12 12 12 12 11 11 10 10 10 10 10 10 9 9 9 8 8 8 7 7
18 18 17 17 17 17 17 16 16 15 15 15 15 15 15 15 15 15 15 15 15 15 15 15 14 15 15 14 14 14 14 14 14 14 14 14 14 14 14 13 13 13 13 13 13 12 12 12 12 12 11 11 11 11 10 10 10 10 10 10 10 9 9 8 8 8 7 7 7
18 18 17 17 17 17 16 16 16 15 15 16 16 15 15 15 15 15 15 15 15 15 15 14 14 14 14 14 14 14 14 14 14 14 14 14 14 14 13 13 13 12 12 12 12 12 12 12 11 11 11 11 10 10 10 10 10 10 10 10 10 9 9 8 7 7 7 6 6
18 17 17 17 17 16 16 16 16 16 16 16 16 15 15 15 15 15 15 15 15 14 14 14 14 14 14 14 14 14 14 14 14 14 14 14 13 13 13 12 12 12 12 12 12 12 12 11 11 11 11 10 10 10 10 10 10 10 10 9 9 9 8 8 7 7 6 6 6
18 17 17 17 17 16 16 16 16 16 16 16 16 15 15 15 15 15 15 14 14 14 14 14 14 14 14 14 13 13 13 13 14 14 13 13 13 13 12 12 12 12 12 12 12 12 11 11 11 11 11 11 10 10 10 9 9 9 9 9 8 8 7 7 7 6 6 6 6
18 17 17 17 16 16 16 16 16 16 16 16 15 15 15 15 15 15 14 14 14 14 14 15 14 14 14 14 13 13 13 13 13 13 13 13 12 12 12 12 12 12 12 12 11 11 11 11 11 11 11 10 10 10 9 9 9 8 8 8 7 7 7 7 6 6 6 6 5
17 17 17 17 16 16 16 16 16 16 16 16 15 15 15 15 14 14 14 14 14 14 14 14 14 14 14 13 13 13 13 13 12 12 12 12 12 12 12 12 12 12 12 11 11 11 11 11 11 11 10 10 10 9 9 8 8 8 8 7 7 7 6 6 6 6 5 5 5
17 17 17 16 16 16 16 16 16 16 16 15 15 15 14 14 14 14 14 14 14 14 14 14 14 13 13 13 13 13 13 12 12 12 12 12 12 12 12 12 12 12 12 11 11 11 11 11 11 10 10 10 9 9 8 8 8 7 7 7 6 6 6 5 5 5 5 5 5
17 17 17 16 16 16 16 16 16 15 15 15 14 14 14 14 14 14 14 14 14 14 13 13 13 13 13 13 13 13 13 13 12 12 12 12 12 12 12 11 11 12 12 11 11 11 11 11 10 10 10 9 9 8 8 7 7 7 6 6 6 6 5 5 5 5 5 5 5
17 17 17 16 16 16 16 16 15 15 15 14 14 14 13 13 14 14 14 13 13 13 13 13 12 12 12 12 12 12 12 12 12 12 12 11 11 11 11 11 11 11 11 11 11 10 10 10 10 10 9 9 8 8 7 6 6 6 6 5 5 5 5 5 5 5 5 5 4
17 16 16 16 16 16 16 15 15 15 14 14 13 13 13 13 13 13 13 13 12 12 12 12 12 12 12 12 12 12 12 12 12 12 12 11 11 11 11 11 11 11 11 10 10 10 10 10 9 9 9 8 8 7 6 6 5 5 5 5 5 5 5 5 5 5 4 4 4
16 16 16 16 15 15 15 15 14 14 13 13 13 13 13 13 13 13 12 12 12 12 12 12 12 12 12 12 12 12 11 11 11 11 11 11 11 11 11 11 10 10 10 10 10 9 9 9 9 8 8 7 7 6 6 5 5 5 5 5 5 5 5 5 5 5 4 4 4
16 16 15 15 15 15 15 14 14 13 13 13 13 13 13 13 12 12 12 12 12 12 12 12 12 11 11 11 11 11 11 11 11 11 10 11 10 10 10 10 10 9 9 9 9 9 9 8 8 8 7 7 6 6 5 5 5 5 5 5 5 5 5 5 4 4 4 4 4
15 15 15 15 15 14 14 14 13 13 13 13 12 12 12 12 12 12 12 12 12 12 12 11 11 11 11 11 11 11 10 10 10 10 10 10 10 10 10 9 9 9 9 9 9 9 8 8 8 7 7 6 6 6 5 5 4 4 4 4 5 5 5 4 4 4 4 4 4
15 15 15 15 14 14 13 13 13 13 12 12 12 12 12 12 12 12 12 12 12 11 11 11 11 11 11 11 10 10 10 10 10 10 10 10 9 9 9 9 8 8 8 8 8 8 8 7 7 6 6 6 6 5 5 4 4 4 4 4 4 4 5 5 5 5 4 4 4
15 15 14 14 14 13 13 13 12 12 12 12 12 12 12 12 12 12 12 11 11 11 11 11 11 10 10 10 10 10 10 9 9 9 10 9 9 9 8 8 8 8 8 8 8 8 7 7 6 6 5 5 5 5 5 4 4 4 4 4 4 5 5 5 5 5 4 4 4
15 14 14 14 13 13 13 12 12 12 12 12 12 12 11 11 11 11 11 11 11 11 11 11 10 10 10 10 9 9 9 9 9 9 9 9 9 8 8 8 7 8 8 8 7 7 7 6 6 6 5 5 5 5 4 4 4 4 4 4 5 5 5 5 5 5 4 4 3
14 14 14 13 13 13 12 12 12 12 12 12 11 11 11 11 11 11 11 11 11 10 10 10 10 10 10 10 9 9 9 9 9 9 9 8 8 8 8 7 7 7 7 7 7 7 6 6 6 6 5 5 5 4 4 4 4 4 4 4 5 5 5 4 4 4 4 3 3
14 14 13 13 12 12 12 12 12 11 11 11 11 11 11 11 11 10 10 10 10 10 10 10 10 10 9 9 9 9 9 8 8 8 8 8 8 8 7 7 7 7 7 7 7 6 6 6 6 6 5 5 4 4 4 4 4 4 4 4 4 4 4 4 3 3 3 3 3
14 13 13 12 12 12 11 11 11 11 11 11 11 11 11 10 10 10 10 10 10 9 9 9 9 9 9 9 9 9 9 8 8 8 8 7 7 7 7 6 6 6 6 6 6 6 6 6 6 5 5 4 4 3 3 3 3 4 4 4 3 3 3 3 3 3 3 2 2
13 13 12 12 12 11 11 11 11 11 11 11 10 10 10 10 10 10 10 10 9 9 9 9 9 9 9 8 8 8 8 8 8 7 7 7 7 7 6 6 6 6 6 6 6 6 6 6 5 5 5 4 4 3 3 3 3 3 3 3 3 3 3 2 2 2 2 2 2
13 12 12 12 11 11 11 11 11 11 10 10 10 10 10 10 9 9 9 9 9 9 8 8 8 8 8 8 8 7 7 7 7 7 7 7 7 7 6 6 5 5 5 6 6 6 6 5 5 5 5 4 4 3 3 3 3 3 3 2 2 2 2 2 2 2 2 2 2
12 12 12 11 11 11 11 11 11 10 10 10 10 10 9 9 9 9 9 9 9 9 8 8 8 8 8 7 7 7 7 7 7 7 7 7 7 7 6 6 5 5 5 5 5 5 5 5 5 5 4 4 4 3 3 3 3 2 2 2 2 2 2 2 1 1 1 1 1
12 12 11 11 11 11 11 11 10 10 10 10 9 9 9 9 9 8 8 9 9 9 8 8 7 7 7 7 6 6 6 6 6 6 6 6 6 6 6 6 5 5 5 5 5 5 5 5 5 5 4 4 4 3 3 3 2 2 2 2 1 1 1 1 1 1 1 1 1
12 11 11 11 11 11 10 10 10 10 10 9 9 9 9 8 8 8 8 8 8 8 8 7 7 7 6 6 6 6 6 6 6 6 6 6 6 6 6 6 5 5 5 5 5 5 5 5 5 4 4 4 4 3 3 3 2 2 2 1 1 1 1 1 1 1 1 1 1
Height
735 736 737 739 740 741 743 744 745 746 747 748 749 750 751 752 754 755 756 757 759 760 761 762 763 765 766 768 769 770 772 773 775 776 777 778 779 780 782 783 784 785 786 787 789 790 792 793 794 795 795 796 796 797 798 799 800 800 801 801 801 802 802 803 804 804 805 805 805
733 734 735 737 739 740 741 743 744 745 745 746 747 749 750 751 752 754 755 756 757 758 760 761 762 764 765 766 768 769 771 772 774 775 776 777 778 780 780 781 782 783 785 786 788 789 791 792 793 794 794 795 796 796 797 798 799 800 800 800 801 801 801 802 803 803 804 804 804
730 732 734 735 737 738 740 741 742 743 744 745 746 748 749 750 751 753 754 755 756 758 759 760 762 763 764 765 767 768 770 771 773 774 775 776 777 779 780 780 781 782 784 785 786 788 790 790 791 792 793 794 795 796 797 797 798 799 799 800 800 800 800 801 801 802 803 803 804
729 730 732 733 735 735 737 738 739 741 742 744 745 747 748 749 750 752 753 754 756 757 758 759 760 762 763 765 766 767 769 771 772 773 775 775 777 778 779 780 780 782 783 784 785 787 788 790 790 791 792 793 794 795 796 797 797 798 799 799 799 799 800 800 800 801 802 802 803
727 728 730 731 732 733 735 736 738 740 741 743 745 746 747 749 750 751 752 754 755 756 757 758 760 761 762 764 765 767 768 770 771 773 774 775 776 777 778 779 780 781 782 784 785 786 787 789 790 791 792 793 794 795 795 796 797 797 798 798 798 799 799 799 800 800 801 802 802
725 726 728 729 730 732 734 735 737 739 740 742 744 745 746 747 749 750 751 752 754 755 756 758 759 760 762 763 765 766 768 769 771 772 773 774 775 776 777 778 779 780 781 783 784 785 787 788 789 790 791 792 793 794 795 795 796 796 797 797 798 798 799 799 799 800 801 801 801
722 724 726 728 729 731 733 735 736 738 739 741 742 743 744 745 747 748 750 751 753 755 756 757 759 760 761 762 764 765 767 769 770 771 772 774 774 775 776 777 778 780 781 782 784 785 786 787 788 789 790 791 792 793 794 795 795 795 796 796 797 797 798 798 799 800 800 800 801
721 723 725 726 728 730 731 733 735 736 738 739 740 741 743 745 746 748 749 751 752 754 755 756 758 759 760 761 763 765 766 768 769 771 772 773 774 775 776 777 778 779 780 781 783 784 785 786 787 789 790 790 791 792 793 794 794 795 795 796 796 796 797 798 798 799 800 800 800
720 721 723 725 727 729 730 732 733 735 736 738 739 740 742 744 745 747 749 750 751 753 754 755 757 758 760 761 762 764 765 767 769 770 771 772 773 774 775 776 777 778 780 781 782 783 785 786 787 788 789 790 790 791 792 793 793 794 795 795 795 796 796 797 798 799 799 800 800
718 720 722 724 725 727 729 731 732 734 735 736 738 740 742 743 745 746 748 749 750 752 754 755 756 757 759 760 762 763 765 766 768 769 770 771 772 773 775 775 776 778 779 780 781 783 784 785 786 787 788 789 790 790 791 792 793 794 794 795 795 795 796 797 798 798 799 799 799
716 718 720 722 724 726 728 730 731 733 735 736 738 739 741 743 744 745 747 749 750 752 753 754 755 757 758 760 761 763 765 766 767 769 770 771 772 773 774 775 776 777 778 780 781 782 784 785 785 786 787 788 789 790 791 792 792 793 794 794 795 795 796 797 797 798 798 798 798
715 716 719 721 723 725 727 729 730 732 734 735 737 738 740 741 743 745 747 748 750 751 752 754 755 756 758 760 761 763 764 765 767 768 770 770 771 772 773 774 775 777 778 779 780 782 783 784 785 785 786 787 789 790 790 791 792 792 793 794 795 795 796 796 797 797 797 797 798
714 716 718 720 722 724 726 727 729 731 733 734 735 737 739 741 742 745 746 748 749 750 752 753 755 756 758 759 761 762 764 765 766 768 769 770 771 772 773 774 775 776 778 779 780 781 782 783 784 785 786 787 788 789 790 791 791 792 793 794 795 795 795 796 796 796 797 797 797
713 715 717 719 721 723 725 726 728 730 732 733 735 736 738 740 742 744 745 747 748 750 751 753 755 756 757 759 760 762 763 765 766 767 768 769 770 771 773 774 775 776 777 778 780 780 781 782 783 784 785 786 787 788 790 790 791 792 793 794 794 795 795 795 796 796 796 797 797
712 714 716 718 720 722 724 725 727 729 731 732 734 736 738 740 742 743 745 746 748 749 751 752 754 756 757 759 760 761 763 764 765 766 768 769 770 771 772 773 775 775 777 778 779 780 781 782 783 784 785 786 787 788 790 790 791 792 793 793 794 794 795 795 795 796 796 797 797
711 713 715 717 719 720 723 725 726 728 730 731 733 735 737 739 741 743 744 745 747 749 750 752 754 755 757 759 760 761 762 764 765 766 767 768 770 771 772 773 774 775 776 777 778 780 780 781 782 783 785 786 787 789 790 790 791 792 792 793 793 794 795 795 795 796 796 797 797
710 712 714 715 717 719 721 723 725 727 729 730 733 735 737 739 740 742 744 745 747 749 750 752 754 755 757 758 760 761 762 763 765 766 767 768 769 770 771 772 774 775 775 777 778 779 780 781 783 784 785 786 787 788 789 790 790 791 792 792 793 794 794 795 795 796 796 797 797
709 710 712 714 716 718 720 722 724 726 728 730 732 734 736 738 740 741 743 745 746 748 750 752 753 755 756 758 759 761 762 763 764 765 767 768 769 770 771 772 773 774 775 776 778 779 780 782 783 784 785 786 787 788 789 790 790 791 792 792 793 794 795 795 795 796 797 797 797
707 709 711 713 715 717 719 721 723 725 727 730 732 734 735 737 739 740 743 745 746 748 749 751 753 755 756 757 759 760 762 763 764 765 766 768 769 770 771 772 773 774 775 777 778 780 781 782 783 784 785 786 787 788 789 789 790 791 792 792 793 794 795 795 796 796 797 797 797
706 708 710 712 714 716 719 720 722 724 727 729 731 734 735 737 738 740 742 744 746 747 749 750 752 754 756 757 759 760 762 763 764 765 766 767 769 770 771 772 773 774 776 777 779 780 781 782 783 784 785 786 787 787 788 789 790 791 792 793 793 794 795 795 796 796 797 797 797
705 707 709 711 714 716 718 720 722 724 727 729 731 733 735 736 738 740 742 744 745 747 749 750 752 754 755 757 758 760 762 763 764 765 766 767 769 770 771 772 773 775 776 778 779 780 781 782 783 784 785 786 787 788 789 790 790 791 792 793 793 794 795 795 796 796 796 797 797
703 706 709 711 714 715 717 720 722 725 727 729 731 733 735 736 738 740 741 743 745 747 749 750 752 753 755 757 758 760 762 763 764 765 766 768 769 770 771 773 774 775 777 778 779 780 781 782 783 784 785 786 787 788 789 790 790 791 792 793 794 794 795 795 796 796 796 797 797
703 705 708 711 713 715 717 720 722 725 727 729 731 733 735 736 738 740 741 743 745 747 749 750 752 753 755 757 758 760 761 763 765 766 767 768 769 770 772 773 775 776 777 778 779 780 781 782 784 785 786 787 788 789 790 790 791 792 792 793 794 794 795 795 796 796 797 797 797
702 705 708 711 713 715 718 720 722 725 727 729 730 732 734 736 738 740 741 743 745 747 749 751 752 754 755 757 759 760 761 763 765 766 767 768 770 771 772 773 775 776 777 778 780 780 782 783 784 785 786 787 788 789 790 791 791 792 793 793 794 795 795 796 796 797 797 797 797
702 705 707 710 713 715 717 720 722 724 726 728 730 732 734 735 737 739 741 744 745 747 749 751 753 754 756 757 759 760 761 763 764 765 767 768 770 771 772 774 775 776 778 779 780 781 782 783 785 785 787 788 789 790 790 791 792 793 793 794 794 795 795 796 797 797 797 798 798
702 704 706 709 712 715 717 719 721 724 726 728 730 732 734 735 737 740 742 744 746 748 750 751 753 755 756 757 759 760 762 763 764 765 766 768 770 771 772 774 775 777 778 780 781 782 783 784 785 786 787 788 789 790 790 791 792 793 794 794 795 795 796 796 797 797 798 798 798
701 704 706 709 711 714 716 719 721 723 725 727 730 731 734 736 738 740 742 744 746 748 750 751 753 755 756 758 759 760 762 763 765 765 767 768 770 771 773 774 775 777 779 780 781 782 784 785 786 787 788 788 789 790 790 791 792 793 794 795 795 795 796 797 797 798 798 798 799
701 703 706 709 711 714 716 719 721 723 725 727 729 731 734 736 738 740 742 744 746 748 750 752 753 755 756 758 760 760 762 763 764 766 767 768 770 771 773 775 776 778 779 780 782 783 784 785 786 787 788 789 790 790 791 792 792 793 794 795 795 796 796 797 797 798 798 799 799
701 703 706 709 711 714 716 718 720 722 725 727 729 732 734 736 738 740 742 744 746 748 750 752 754 755 757 758 760 760 762 763 764 766 767 769 770 772 773 775 777 778 780 781 782 783 785 786 787 788 789 789 790 790 791 792 793 793 794 795 795 796 797 797 798 798 799 799 800
701 704 706 709 711 713 715 718 720 722 724 727 729 732 734 736 738 740 742 744 746 748 750 752 753 755 757 758 759 760 762 763 765 766 767 769 771 773 774 776 777 779 780 781 782 784 785 786 787 788 789 789 790 790 791 792 793 793 794 795 796 796 797 798 798 799 799 800 800
702 704 706 709 711 713 715 718 720 722 724 727 729 731 734 736 738 740 742 744 746 748 750 751 753 755 756 757 759 760 762 763 765 766 768 770 771 773 775 776 778 779 780 782 783 785 785 787 788 789 789 790 790 790 791 792 793 794 795 795 796 797 798 798 799 799 800 800 800
702 704 706 709 711 713 715 718 720 722 724 726 729 731 733 736 738 740 743 745 746 748 750 751 753 755 756 758 759 760 762 764 766 767 769 770 772 774 775 777 778 780 781 783 784 785 786 787 788 789 790 790 790 790 791 792 793 795 795 796 797 798 798 799 799 800 800 800 801
701 704 706 708 711 713 715 718 720 722 724 726 728 731 734 736 739 741 743 745 746 748 750 751 753 754 756 758 759 761 763 765 766 768 770 771 773 774 776 778 779 781 782 783 785 786 787 788 789 789 790 790 790 791 792 793 794 795 796 797 798 798 799 799 800 800 800 801 801
701 704 706 708 711 713 715 717 719 721 723 726 728 731 734 736 739 741 743 745 746 748 750 751 753 754 756 758 759 761 763 765 767 769 770 772 773 775 776 778 780 781 783 784 785 786 787 788 789 790 790 790 791 792 793 794 795 796 796 797 798 799 800 800 800 801 801 801 801
700 703 705 708 710 712 715 717 719 721 723 726 729 731 734 736 738 741 743 745 746 748 750 752 753 755 757 758 760 762 764 765 767 769 771 772 774 775 777 779 781 783 784 785 786 787 788 788 789 790 790 791 791 792 793 795 795 796 797 798 799 800 800 801 801 801 802 802 802
698 701 704 707 709 711 714 716 719 721 723 726 729 731 734 736 739 740 742 744 746 748 750 752 754 755 757 759 761 763 764 766 768 770 771 773 774 776 778 780 782 784 785 786 787 787 788 788 789 790 790 791 792 793 794 795 796 797 798 799 800 800 801 801 802 802 802 802 802
695 699 701 705 708 710 713 716 718 721 723 726 729 731 734 736 739 740 742 744 746 748 750 752 754 756 758 760 761 763 765 766 768 770 772 774 775 776 778 780 782 784 786 787 787 788 788 789 789 790 790 791 792 793 794 795 797 798 798 799 800 801 801 802 802 803 803 803 803
694 697 700 703 706 710 713 716 718 721 723 726 729 731 734 736 738 740 742 744 745 748 750 753 755 756 758 760 762 764 766 767 769 770 772 774 776 777 779 781 783 785 786 787 788 788 788 789 790 790 790 791 792 793 795 796 797 798 799 800 800 801 802 803 803 803 804 804 804
695 697 700 703 707 710 713 716 719 721 723 726 729 732 734 736 738 740 742 744 745 748 750 753 755 757 759 760 763 765 767 769 770 771 773 775 776 778 779 781 783 785 786 787 788 788 789 789 790 790 791 792 792 794 795 796 797 798 799 800 801 802 803 803 804 804 804 805 805
696 699 701 704 708 711 714 717 719 721 724 726 729 732 734 736 739 741 743 745 746 748 750 753 755 758 760 761 763 766 768 770 772 773 774 776 778 779 780 781 783 785 787 788 788 789 789 790 790 791 792 792 793 794 795 796 797 798 800 800 801 802 803 804 804 804 805 805 805
698 700 703 706 709 711 714 717 720 722 725 727 730 732 735 737 739 741 743 745 747 749 751 754 756 758 760 762 764 766 769 771 773 774 775 777 779 780 781 782 784 785 787 788 789 789 790 790 791 792 792 793 794 795 795 796 797 799 800 801 801 802 803 804 804 805 805 805 805
Wind_Speed
32 31 31 30 30 29 29 28 27 27 27 27 27 27 26 25 26 26 26 26 26 25 25 26 26 26 26 26 26 27 26 25 24 24 24 24 24 24 24 25 25 26 27 28 28 28 28 28 28 28 27 27 27 28 28 29 29 29 30 30 31 31 30 29 28 28 28 29 29
33 32 31 30 30 29 28 28 27 27 27 27 28 27 27 26 26 26 26 26 26 25 25 25 26 26 26 26 27 27 27 26 25 24 23 24 24 24 24 24 25 26 27 28 28 28 28 29 29 28 27 26 26 26 27 28 28 28 29 30 30 30 29 28 27 27 27 28 28
33 32 31 31 30 29 29 28 28 28 28 28 27 27 27 26 26 26 26 26 25 25 25 25 26 27 27 27 27 27 27 26 25 24 23 23 24 24 24 24 24 25 26 27 27 28 29 29 29 28 27 26 26 26 26 26 27 27 27 29 30 30 29 28 26 25 25 26 27
34 33 32 32 32 32 31 30 29 29 29 28 27 27 27 26 26 26 25 25 25 25 25 26 27 27 27 27 27 27 27 26 25 24 23 23 24 24 24 24 24 24 25 25 26 27 28 28 28 27 26 25 25 25 25 25 25 25 26 27 28 28 28 27 25 24 24 24 25
34 34 33 33 34 33 32 30 30 29 29 27 27 26 26 26 26 25 25 25 25 26 26 26 27 27 27 27 26 26 26 26 25 24 23 23 24 24 24 24 24 24 24 25 25 26 26 27 27 26 26 25 24 24 24 24 23 24 24 25 25 25 25 24 22 21 21 22 22
35 35 34 34 34 33 32 30 30 29 28 27 27 27 27 26 26 26 25 25 26 26 26 27 27 27 27 26 26 26 26 26 25 24 23 23 23 23 24 24 24 24 24 24 24 25 25 25 25 25 25 24 24 23 23 23 22 22 23 23 22 22 22 20 19 19 19 19 18
35 35 35 34 33 33 32 30 29 29 29 28 28 28 28 27 27 26 26 26 26 26 26 27 26 26 26 26 26 26 26 26 25 24 23 22 22 23 23 23 23 23 23 23 23 24 24 24 24 24 24 24 23 23 22 22 22 21 21 21 21 20 19 18 17 16 16 15 14
35 35 35 34 33 33 32 31 30 29 29 28 29 30 30 28 27 27 26 26 26 27 27 27 27 26 26 26 26 26 26 25 25 24 23 22 22 22 22 22 22 22 22 22 23 23 24 24 24 24 24 24 23 22 22 22 21 21 20 20 20 19 18 17 15 13 12 12 11
33 34 34 33 33 33 32 31 31 30 30 29 30 30 30 29 28 27 26 26 27 27 27 27 27 26 26 25 25 25 25 25 25 24 23 23 22 22 22 21 21 21 21 22 22 23 23 23 23 24 24 24 23 23 22 22 21 20 20 20 19 18 17 15 13 11 10 10 9
32 33 34 33 33 33 32 31 31 31 31 30 30 30 29 29 28 28 27 27 27 27 27 27 27 26 25 25 25 25 25 25 24 24 23 23 22 22 22 21 21 21 21 21 21 22 23 23 23 24 24 24 23 23 23 22 21 20 20 19 18 16 14 12 10 10 9 8 6
33 34 34 33 33 32 32 31 31 31 30 30 30 30 29 29 29 28 27 26 26 26 27 27 27 26 25 24 24 24 24 24 24 23 23 22 22 22 22 21 21 21 21 21 21 22 22 23 24 24 24 24 23 23 22 22 21 20 19 18 16 14 11 10 8 7 6 4 3
33 33 33 33 32 32 32 31 30 30 30 29 30 30 29 29 29 28 27 26 26 26 27 27 27 26 25 24 23 23 23 24 23 23 22 22 22 22 22 21 21 21 21 21 21 22 23 24 24 24 24 23 22 22 22 22 21 20 18 16 14 12 10 8 5 4 3 2 3
32 32 32 32 32 32 31 31 30 29 29 29 30 30 29 29 29 28 27 27 27 27 27 26 26 25 24 23 23 23 23 23 23 23 22 22 22 22 22 22 22 22 22 22 22 23 23 23 24 24 23 22 22 21 21 21 20 18 16 14 12 10 7 4 2 1 1 3 4
32 31 31 31 31 31 31 30 29 29 29 29 29 29 29 29 28 28 27 27 27 27 26 26 25 24 24 23 22 22 23 23 23 22 22 22 22 22 22 22 22 22 22 22 22 23 23 23 23 23 23 22 21 20 19 18 17 15 13 11 8 5 4 2 1 1 3 4 5
31 31 31 31 31 31 31 30 28 28 28 29 29 29 28 28 28 28 28 27 27 27 26 25 24 24 23 22 22 22 22 23 23 23 22 22 22 23 23 23 23 23 22 22 22 22 22 22 22 22 22 21 20 19 17 15 13 10 8 6 4 4 3 2 2 3 4 5 5
31 31 31 31 32 31 30 29 27 27 27 29 29 28 28 28 28 28 28 28 27 26 25 25 24 23 22 22 22 22 22 23 23 23 23 23 23 23 23 23 23 23 23 23 23 22 22 22 21 20 19 18 17 15 13 11 9 7 6 5 5 4 3 3 3 3 3 4 4
31 31 31 32 32 31 31 29 27 27 27 28 28 28 28 28 27 27 28 28 26 25 24 24 23 23 22 22 22 22 23 23 23 23 23 23 23 23 23 23 23 23 23 23 23 23 21 20 18 16 15 14 13 11 10 8 8 7 7 6 5 4 3 2 2 2 2 3 4
31 32 32 32 32 32 31 30 28 27 28 28 28 28 28 28 27 27 27 27 26 25 24 24 23 23 23 23 22 23 23 24 24 24 24 23 23 24 24 24 24 24 24 24 23 21 19 17 14 13 12 11 10 10 9 9 8 8 7 6 4 3 1 1 1 1 2 3 3
32 32 32 32 32 32 31 30 28 28 29 29 28 28 28 28 28 27 26 26 26 25 25 24 24 24 24 24 23 23 24 24 25 24 24 24 24 24 24 24 24 24 23 22 21 19 16 14 12 11 11 11 10 10 9 9 8 7 6 5 3 2 1 1 1 1 2 3 3
32 32 32 32 32 31 30 30 29 29 29 29 28 28 28 28 28 28 27 26 26 26 26 26 25 25 25 25 25 25 25 25 25 25 25 24 24 24 24 24 24 23 21 19 17 15 14 13 12 11 11 11 10 10 9 9 8 7 6 5 4 3 2 2 2 1 1 2 2
32 32 32 32 31 30 30 29 29 29 29 29 28 28 28 28 28 28 27 27 27 27 27 27 27 26 26 26 26 26 25 25 25 25 25 25 25 25 24 23 22 20 18 16 15 14 13 13 12 11 11 10 10 10 9 9 8 8 7 5 5 4 4 4 3 1 1 1 1
32 32 32 31 30 30 30 29 29 29 29 29 28 28 28 28 28 28 28 28 28 28 28 28 28 28 28 27 27 26 26 25 25 25 25 25 24 24 23 21 20 18 16 15 14 14 13 13 12 11 10 10 9 9 9 9 8 8 7 6 6 6 5 5 3 2 2 1 2
32 31 31 30 30 30 30 29 29 29 29 29 28 28 28 28 28 28 29 29 29 29 29 28 28 28 28 27 27 26 26 25 25 24 24 24 23 22 21 20 19 17 16 15 14 14 14 13 12 11 10 9 9 8 8 8 8 8 8 7 7 7 6 5 5 4 4 4 5
31 31 31 30 29 30 30 30 29 29 29 29 28 28 29 29 29 29 30 30 30 30 29 28 28 28 27 27 26 26 26 25 25 24 23 23 22 22 21 20 19 17 15 14 13 14 14 14 13 12 10 9 8 8 7 7 7 8 8 8 8 8 7 7 7 7 7 8 9
31 31 31 30 30 30 30 30 30 29 29 29 29 29 30 30 30 31 31 31 30 29 28 28 28 28 27 27 27 26 26 25 25 24 23 22 22 21 21 20 18 16 14 13 14 14 14 14 13 12 11 9 9 8 8 8 9 9 8 9 9 10 10 10 10 11 11 12 11
31 31 31 31 30 30 30 30 30 30 30 29 30 30 30 31 31 32 31 31 30 29 29 28 28 28 28 27 27 26 25 25 24 24 24 23 22 21 21 20 19 17 16 15 15 15 15 14 12 11 10 9 9 9 10 11 10 10 10 10 11 12 12 13 13 13 13 13 13
31 31 31 31 31 31 31 31 30 30 30 30 31 31 31 31 31 31 31 30 30 29 29 29 29 29 28 27 27 26 25 25 24 23 23 23 22 22 21 20 19 18 17 16 16 15 14 13 11 9 8 8 9 11 13 13 12 12 12 12 12 13 14 14 14 14 13 13 12
30 31 31 32 31 31 31 31 31 31 31 31 32 32 32 32 31 31 31 31 30 30 30 30 29 28 27 27 27 26 26 25 24 23 23 23 22 22 21 20 20 19 18 17 15 14 13 11 9 8 8 9 11 13 14 14 14 13 13 13 13 14 14 13 13 13 12 12 11
30 31 32 32 31 31 31 31 31 32 32 32 32 32 32 32 32 32 32 32 31 31 30 29 28 27 27 27 26 26 26 25 24 24 23 23 23 22 21 20 20 18 17 16 15 13 12 10 9 9 10 12 13 14 14 14 14 14 14 14 14 13 12 11 11 11 11 10 10
31 32 32 32 31 31 31 32 32 33 33 32 32 32 32 32 32 33 32 32 31 31 30 29 28 27 27 27 27 27 26 25 25 24 24 24 23 22 21 20 19 18 16 15 14 13 11 11 11 12 12 13 14 15 15 15 15 15 15 14 13 12 11 10 10 10 9 9 9
31 32 32 32 32 31 32 32 33 33 33 33 33 33 33 33 33 33 33 32 32 31 30 30 29 28 28 28 28 27 27 26 25 25 24 24 23 22 21 20 19 18 16 14 13 12 12 12 13 14 14 15 15 16 16 16 16 16 15 14 12 11 10 10 9 9 9 9 9
32 33 33 32 32 32 32 33 33 33 34 34 34 34 34 34 33 33 33 33 32 31 31 30 30 30 29 29 28 28 27 27 26 25 24 24 23 22 21 20 19 17 16 14 13 13 14 14 15 16 16 16 17 18 18 18 18 17 15 14 12 11 11 10 10 10 10 10 10
33 33 33 33 33 33 33 33 33 34 35 35 35 34 34 34 33 33 32 32 32 32 31 31 31 30 30 29 28 28 28 27 26 26 25 24 24 23 22 20 19 17 16 15 15 15 16 17 17 18 18 18 19 20 20 20 19 17 16 14 13 13 12 12 12 12 13 13 13
34 34 34 34 33 33 33 33 34 35 35 35 35 35 35 34 33 32 31 31 32 32 32 31 31 31 30 30 29 29 28 27 27 26 26 25 24 23 23 21 19 17 16 16 17 17 18 19 19 19 20 20 21 21 21 20 19 18 17 16 16 15 15 14 14 14 14 15 15
36 35 35 34 34 33 34 34 35 35 35 35 35 35 35 34 33 32 31 31 31 31 30 30 30 30 30 30 29 29 29 28 28 27 27 26 25 24 23 22 20 18 18 18 19 19 19 20 20 21 21 22 22 22 22 21 19 18 18 18 18 17 17 16 16 16 16 16 16
38 37 36 35 34 34 34 34 35 35 35 35 34 34 34 33 33 32 32 32 31 30 30 29 30 30 30 29 29 29 29 29 29 28 27 26 26 25 24 23 21 20 19 19 19 20 20 20 21 21 22 23 23 23 22 21 20 20 20 20 20 19 18 18 17 17 17 16 16
40 39 37 36 35 35 35 35 35 35 34 34 34 34 33 33 32 32 33 33 32 31 30 30 30 30 29 29 29 29 29 29 29 29 28 27 26 26 26 24 22 21 20 19 19 19 19 20 20 21 22 23 24 23 23 22 22 22 22 22 22 21 20 19 18 18 17 16 15
38 38 37 37 36 35 35 35 35 34 34 34 34 34 34 33 32 32 32 33 32 32 31 30 30 29 30 30 30 30 29 29 29 29 29 27 27 26 26 25 23 21 20 19 18 18 18 19 19 20 22 23 24 24 24 24 24 24 23 23 23 22 21 20 19 18 17 16 15
36 37 37 37 36 35 35 34 34 34 34 34 34 34 33 33 31 31 31 32 32 32 32 31 30 30 30 30 30 30 30 29 28 29 29 28 27 26 26 25 24 21 19 18 18 17 18 18 19 20 21 23 24 25 25 25 25 25 25 25 24 23 22 21 19 19 18 16 15
35 36 37 36 36 35 34 34 34 35 35 35 34 33 32 32 31 30 31 31 32 33 32 31 31 31 31 31 31 31 30 28 28 28 28 28 26 25 25 25 23 21 19 18 17 17 18 18 19 20 21 23 24 25 26 26 27 26 26 25 25 24 23 21 21 20 19 18 17
35 36 36 36 35 35 34 34 34 34 35 35 34 33 32 32 31 31 31 31 32 32 32 32 32 32 32 32 32 31 30 29 28 28 28 27 26 25 24 24 23 21 20 18 18 18 18 19 19 20 22 23 24 25 26 26 27 27 27 26 25 24 23 22 21 20 19 19 18
Wind_Direction
200 200 200 200 200 200 201 202 203 202 201 200 200 200 200 199 200 202 203 203 204 205 206 207 208 210 210 209 209 208 208 209 210 210 210 210 210 210 210 210 210 209 210 212 214 218 220 222 221 221 221 222 223 225 226 227 228 230 233 235 237 239 240 242 247 251 253 253 253
200 200 200 200 200 200 201 202 203 203 202 202 201 201 201 200 201 202 204 204 205 205 206 207 209 210 210 210 209 208 208 208 209 210 210 211 210 210 209 209 208 208 209 210 213 216 219 221 220 220 221 222 224 226 227 229 230 231 232 235 237 238 239 241 246 251 255 256 256
200 200 200 200 200 200 201 202 203 203 202 202 202 201 201 202 203 203 204 205 205 205 206 207 208 209 210 210 209 208 208 208 209 210 211 211 211 211 210 209 208 208 208 209 211 214 217 219 220 220 220 222 224 226 228 230 231 232 233 236 237 238 238 239 243 249 253 256 257
200 200 200 200 200 200 201 202 202 202 202 201 201 201 202 203 204 204 205 205 204 204 205 207 208 209 210 210 209 208 208 208 209 210 211 211 211 211 211 210 209 207 207 208 210 214 216 218 220 220 220 222 223 226 228 230 232 233 236 237 238 238 237 238 242 247 252 256 257
200 200 200 201 201 201 201 201 201 201 201 200 200 200 202 203 204 204 204 204 204 204 206 207 209 210 210 210 209 208 207 208 209 210 211 211 210 211 211 211 210 209 208 209 211 213 216 217 219 220 221 222 224 226 228 231 233 235 236 237 237 237 237 238 242 247 252 254 253
201 201 201 202 202 202 202 202 201 200 199 199 198 199 201 202 203 203 202 203 203 204 206 208 210 210 210 209 209 208 207 207 209 210 210 209 209 209 210 211 211 211 210 210 211 213 214 215 217 219 221 222 223 225 228 230 232 233 234 234 234 235 237 239 244 249 250 248 242
201 201 201 202 202 201 201 201 201 199 198 198 198 199 200 201 202 202 202 202 203 203 205 207 209 209 209 209 208 207 207 207 208 209 209 208 207 208 208 209 210 210 210 210 210 210 211 213 214 216 218 220 221 223 225 228 229 230 229 230 232 236 239 243 246 245 241 236 234
201 201 201 201 201 201 200 200 199 198 197 197 198 200 201 201 201 201 201 201 201 202 204 206 208 209 209 208 207 206 206 207 207 208 208 208 207 207 208 208 208 208 207 207 207 207 208 210 212 214 215 217 218 219 222 225 226 227 228 230 234 238 241 241 238 233 230 232 239
200 201 201 201 201 200 199 199 198 197 196 197 198 200 201 201 200 200 199 200 201 203 205 206 207 208 209 208 207 206 206 206 206 207 207 207 207 207 206 206 204 203 203 204 205 206 207 209 210 213 214 215 216 218 220 222 224 226 230 233 236 237 236 231 226 226 232 242 251
199 199 200 199 199 199 198 197 197 197 197 197 198 200 201 201 200 199 199 199 201 203 204 205 206 207 207 208 207 206 206 206 205 205 205 205 205 204 203 202 200 198 199 201 203 205 206 207 209 211 214 215 216 217 219 222 224 228 232 234 234 230 225 223 225 232 243 252 260
198 198 198 198 197 197 196 195 196 196 196 197 198 198 199 200 200 199 199 199 200 201 203 205 205 206 206 207 207 206 206 205 204 203 202 202 202 201 199 198 197 196 197 199 201 203 204 206 208 210 212 215 216 218 220 224 227 230 231 230 228 224 222 227 235 243 250 259 275
197 197 196 196 195 194 193 193 193 194 194 195 196 196 197 198 198 198 198 198 199 201 203 205 205 205 205 206 206 205 205 204 202 201 200 199 198 197 196 196 196 197 198 199 201 202 204 206 208 209 211 214 216 219 222 225 227 227 226 225 226 227 229 234 238 242 255 283 309
196 194 193 193 192 191 191 191 191 192 192 194 194 194 195 196 197 197 196 197 199 201 202 203 205 205 205 204 204 203 202 202 201 199 197 196 195 194 194 194 196 197 198 199 201 203 204 206 208 210 211 214 216 218 220 223 224 224 224 225 227 228 224 220 214 225 310 330 335
194 192 191 190 189 189 189 189 190 190 190 191 192 192 192 193 194 195 196 197 199 200 200 201 203 204 204 203 202 201 200 199 198 196 194 193 194 194 193 194 195 196 197 199 201 203 205 207 209 211 212 213 213 214 216 218 221 223 225 226 220 208 190 167 129 35 2 351 343
191 189 188 187 187 186 186 186 186 187 188 188 189 189 189 190 192 193 195 197 198 199 199 198 198 199 201 201 200 199 197 196 195 193 192 192 193 194 194 194 195 196 197 198 201 204 206 208 208 209 209 209 209 209 211 214 217 218 215 203 182 159 137 101 51 18 2 355 354
188 187 186 185 184 184 185 185 184 184 185 186 186 187 187 188 189 191 193 195 196 196 195 194 193 193 195 196 197 196 194 192 191 190 190 191 192 194 195 195 195 195 197 198 199 201 203 205 205 204 204 205 206 206 207 205 200 188 171 156 145 129 102 63 30 9 2 7 14
185 184 184 183 183 183 183 184 184 182 182 183 183 184 185 186 186 188 191 192 191 190 188 188 187 187 188 189 191 191 189 188 187 188 189 191 192 193 194 194 194 196 197 197 197 196 196 197 197 198 199 201 200 197 191 180 169 159 152 145 134 114 85 50 26 15 17 21 21
183 183 182 182 182 182 182 182 180 179 179 180 180 181 182 183 183 185 187 189 187 184 181 180 181 183 184 184 184 185 185 184 185 187 190 192 193 194 193 193 193 194 195 194 192 191 189 188 189 188 187 185 180 173 166 162 158 155 151 142 130 114 88 52 37 27 23 21 13
182 181 181 181 181 180 180 179 178 176 177 179 179 179 180 181 181 181 182 183 182 179 175 174 175 178 180 180 179 180 181 182 184 186 189 191 192 191 190 189 189 190 189 188 187 186 184 182 177 172 167 163 160 159 160 160 158 155 151 146 145 151 159 144 93 44 22 11 1
181 180 180 180 180 178 177 176 175 175 176 176 177 176 177 178 179 178 177 176 175 174 173 172 172 173 175 176 176 176 178 181 183 185 187 188 188 186 186 185 185 184 183 182 181 179 176 170 163 159 158 159 161 162 163 162 160 158 158 162 166 165 152 133 112 72 21 359 349
180 180 180 179 177 175 174 173 173 174 174 174 174 174 174 175 175 174 172 171 170 170 170 172 172 172 172 172 172 173 175 178 181 182 183 183 183 182 183 182 180 178 176 175 173 170 165 160 158 160 164 167 169 169 168 165 164 163 162 160 151 138 127 119 113 100 45 1 1
179 179 179 177 174 173 172 171 173 173 172 172 172 172 171 171 171 170 168 167 167 167 169 171 172 172 171 171 171 171 172 174 177 178 179 179 179 179 179 178 175 172 169 168 165 163 160 160 163 168 172 173 174 174 174 171 165 159 150 140 129 121 117 115 114 113 107 100 96
177 177 176 174 173 171 171 172 171 170 170 169 169 168 167 166 166 165 164 164 165 167 169 170 171 171 170 170 170 170 170 171 172 173 175 175 175 175 174 172 170 167 164 164 164 164 164 165 167 171 174 174 175 177 178 172 161 148 137 127 122 118 115 110 108 108 109 108 103
174 173 173 172 172 171 170 170 168 167 167 166 165 164 163 162 161 161 161 162 164 166 166 166 166 166 166 168 170 171 171 169 168 169 170 171 171 170 169 167 165 163 162 164 168 171 172 170 168 169 172 175 177 178 174 163 150 138 129 124 123 121 116 109 106 108 110 108 103
172 171 170 170 168 168 168 166 165 164 164 163 161 160 159 158 159 159 160 160 162 162 161 161 161 162 164 166 169 170 171 170 169 168 167 168 168 168 166 164 162 160 162 167 172 174 174 173 171 170 172 175 176 169 155 140 133 128 125 125 125 122 116 112 111 112 111 106 99
169 168 167 167 165 165 164 163 162 162 160 159 157 156 156 156 157 157 157 157 157 157 158 158 159 161 163 165 166 167 167 168 168 168 168 167 166 166 164 162 160 159 162 167 169 169 168 168 170 173 176 177 170 154 138 128 125 124 124 124 122 118 115 114 115 113 109 102 95
166 164 163 163 162 161 161 160 159 157 156 155 154 154 154 154 155 154 154 153 153 155 156 158 160 161 162 163 163 162 163 164 165 167 167 167 165 163 161 159 157 158 160 162 162 161 160 162 165 170 172 167 154 141 131 126 125 124 123 121 118 115 115 116 115 111 105 99 93
161 159 159 159 159 159 158 157 155 154 153 153 153 152 152 152 152 152 151 151 153 154 155 157 159 159 159 159 159 160 161 162 162 163 164 164 162 160 157 154 153 154 155 156 155 155 156 157 155 151 144 138 132 127 126 126 126 124 121 117 115 115 116 116 113 108 103 98 92
157 156 155 156 155 155 154 153 152 151 151 152 151 151 150 150 150 151 151 152 153 153 154 154 156 156 155 155 157 159 160 160 160 160 160 158 156 154 152 150 149 150 151 152 152 152 152 149 140 131 127 124 122 122 124 125 125 123 120 117 117 119 119 117 114 109 105 101 95
154 153 152 153 152 151 151 151 151 150 150 150 150 149 149 150 150 151 151 152 153 153 154 154 153 153 153 154 156 157 157 157 158 158 156 153 150 148 148 148 148 148 149 150 150 149 146 139 131 127 125 124 124 124 126 127 126 124 122 122 123 123 122 119 116 113 110 107 101
152 151 151 150 150 149 149 150 150 150 149 149 149 149 149 149 150 151 152 153 153 154 154 154 153 153 154 155 156 155 154 154 154 153 151 149 147 146 146 147 146 146 146 148 148 145 139 134 131 130 129 128 127 126 126 126 126 126 125 125 124 121 118 115 114 115 115 115 113
151 151 150 149 148 148 149 149 149 149 149 149 149 148 148 148 149 151 152 153 153 152 152 153 153 152 153 153 153 153 151 150 148 148 148 148 146 145 145 145 144 143 145 146 145 142 137 135 134 135 134 132 128 126 126 127 126 125 124 121 117 113 111 112 114 118 121 122 120
151 150 149 149 148 148 148 148 149 149 148 148 148 147 147 148 149 150 151 152 152 151 152 152 152 151 151 151 150 149 148 146 146 146 147 148 147 145 143 141 140 141 144 145 144 141 139 138 138 138 136 132 128 126 126 126 125 123 120 116 112 109 109 112 115 118 120 119 114
151 150 149 148 148 148 148 148 148 148 147 146 146 146 147 147 147 147 148 149 150 150 151 152 152 152 152 152 150 147 146 145 145 145 146 147 146 144 140 137 137 140 143 145 144 143 142 141 140 139 136 132 128 127 127 126 123 121 118 115 112 110 110 110 112 113 113 112 107
152 151 150 149 149 148 148 147 147 146 145 144 144 145 146 146 146 146 146 147 147 147 147 149 150 150 150 150 150 149 147 145 144 145 145 146 145 141 137 134 136 139 143 144 144 144 143 142 141 139 135 132 129 128 127 125 122 119 116 114 111 109 108 108 108 108 109 108 106
154 152 151 150 149 148 147 146 145 144 144 143 143 143 144 145 146 146 146 146 145 144 144 145 147 147 146 146 147 148 148 147 145 144 144 144 142 138 135 133 135 139 143 144 144 143 143 142 140 138 135 133 132 130 128 124 121 118 115 112 110 108 108 108 108 108 108 107 106
154 152 150 149 147 146 146 145 144 143 143 142 143 143 143 143 144 145 146 146 145 143 143 144 144 144 144 145 145 147 148 148 146 144 143 142 141 137 135 134 136 140 143 144 144 143 142 141 140 139 137 136 135 133 129 126 122 119 116 112 110 109 108 108 108 107 106 104 101
151 149 147 145 145 145 145 145 144 143 142 142 143 143 144 143 143 144 146 148 146 144 143 143 143 144 145 146 145 145 145 147 145 143 141 141 140 138 137 136 138 141 144 145 144 143 142 141 141 141 141 140 138 136 132 128 125 121 117 113 111 109 108 107 105 102 99 96 92
146 145 144 144 144 144 144 144 144 143 142 142 142 143 143 143 143 144 146 148 147 146 144 143 143 144 145 144 142 140 140 141 142 142 140 140 140 140 139 138 139 142 144 146 146 145 144 143 144 145 145 143 141 138 134 130 126 122 118 115 112 109 107 104 101 97 93 88 85
144 144 144 144 144 144 144 143 143 143 142 142 141 141 142 142 142 143 144 146 146 146 145 143 142 142 142 140 138 136 135 136 137 139 139 139 139 140 139 138 139 141 144 146 147 146 146 146 148 148 148 146 143 140 136 132 127 123 119 117 114 111 108 104 101 98 94 89 84
145 145 145 144 143 143 142 142 141 142 142 142 142 141 142 141 141 141 141 142 142 142 142 141 140 139 138 137 135 134 132 132 134 136 138 138 138 138 137 137 137 139 142 144 146 146 147 148 149 150 149 147 144 141 138 134 128 124 121 119 117 115 111 108 105 101 98 94 89